CW0453 Weather Reports


Display with metric or nautical units.
time (UTC)temp
F
wind
direction
speed
MPH
gust
MPH
rain 1hr
in
rain 24hr
in
rain mn
in
humidity
%
barometer
mb
20180926025519 53 304 2.0 4.0 0.00 0.47 0.47 81 1021.4
20180926025022 54 304 3.0 4.0 0.00 0.47 0.47 81 1021.3
20180926024526 54 304 3.0 4.0 0.00 0.47 0.47 80 1021.3
20180926024019 54 304 3.0 4.0 0.00 0.47 0.47 80 1021.3
20180926023516 54 304 3.0 5.0 0.00 0.47 0.47 80 1021.3
20180926023021 54 304 3.0 5.0 0.00 0.47 0.47 80 1021.2
20180926022522 54 304 3.0 4.0 0.00 0.47 0.47 80 1021.1
20180926022021 54 304 3.0 4.0 0.00 0.47 0.47 80 1021.1
20180926021523 54 304 2.0 3.0 0.00 0.47 0.47 81 1021.1
20180926021025 54 304 3.0 3.0 0.00 0.47 0.47 81 1021.1
20180926020527 54 304 2.0 3.0 0.00 0.47 0.47 80 1021.1
20180926020027 54 304 2.0 4.0 0.00 0.47 0.47 79 1021.0
20180926015527 55 304 3.0 4.0 0.00 0.47 0.47 79 1021.0
20180926015028 55 304 2.0 4.0 0.00 0.47 0.47 78 1020.8
20180926014532 55 304 2.0 4.0 0.00 0.47 0.47 78 1020.8
20180926014014 56 304 3.0 5.0 0.00 0.47 0.47 77 1020.8
20180926013516 56 304 3.0 5.0 0.00 0.47 0.47 75 1020.8
20180926013019 56 304 3.0 5.0 0.00 0.47 0.47 75 1020.7
20180926012520 56 311 3.0 5.0 0.00 0.47 0.47 75 1020.6
20180926012020 57 311 2.0 5.0 0.00 0.47 0.47 74 1020.6
20180926011520 57 311 3.0 6.0 0.00 0.47 0.47 74 1020.5
20180926011021 57 311 4.0 6.0 0.00 0.47 0.47 73 1020.4
20180926010524 57 309 3.0 6.0 0.00 0.47 0.47 72 1020.4
20180926010027 58 316 4.0 6.0 0.00 0.47 0.47 72 1020.3
20180926005527 58 317 4.0 6.0 0.00 0.47 0.47 71 1020.3
20180926005028 58 319 3.0 6.0 0.00 0.47 0.47 70 1020.2
20180926004529 58 319 4.0 8.0 0.00 0.47 0.47 71 1020.1
20180926004032 58 315 4.0 8.0 0.00 0.47 0.47 70 1020.0
20180926003533 58 321 3.0 8.0 0.00 0.47 0.47 69 1019.9
20180926003014 58 327 4.0 8.0 0.00 0.47 0.47 69 1019.7
20180926002517 59 342 3.0 10.0 0.00 0.47 0.47 69 1019.6
20180926002017 59 311 4.0 10.0 0.00 0.47 0.47 69 1019.5
20180926001521 59 316 6.0 10.0 0.00 0.47 0.47 69 1019.5
20180926001023 59 317 4.0 8.0 0.00 0.47 0.47 69 1019.4
20180926000524 59 321 4.0 9.0 0.00 0.47 0.47 70 1019.3
20180926000024 59 342 5.0 10.0 0.00 0.47 0.47 69 1019.3
20180925235526 59 326 5.0 10.0 0.00 0.47 0.47 68 1019.2
20180925235026 59 309 4.0 8.0 0.00 0.47 0.47 69 1019.1
20180925234528 60 333 5.0 8.0 0.00 0.47 0.47 68 1019.0
20180925234031 60 339 4.0 10.0 0.00 0.47 0.47 68 1018.9
20180925233531 60 340 5.0 10.0 0.00 0.47 0.47 67 1018.8
20180925233014 60 348 6.0 11.0 0.00 0.47 0.47 67 1018.7
20180925232514 61 350 8.0 11.0 0.00 0.47 0.47 65 1018.6
20180925232016 61 330 5.0 12.0 0.00 0.47 0.47 66 1018.6
20180925231519 61 323 7.0 12.0 0.00 0.47 0.47 66 1018.6
20180925231019 61 355 7.0 14.0 0.00 0.47 0.47 66 1018.7
20180925230520 61 349 9.0 14.0 0.00 0.47 0.47 67 1018.6
20180925230022 61 336 7.0 14.0 0.00 0.47 0.47 67 1018.6
20180925225522 61 349 9.0 14.0 0.00 0.47 0.47 69 1018.5
20180925225022 61 323 8.0 16.0 0.00 0.47 0.47 67 1018.5
20180925224524 61 342 10.0 16.0 0.00 0.47 0.47 68 1018.5
20180925224025 61 326 8.0 16.0 0.00 0.47 0.47 68 1018.4
20180925223526 62 328 11.0 16.0 0.00 0.47 0.47 69 1018.4
20180925223030 62 332 9.0 15.0 0.00 0.47 0.47 66 1018.2
20180925222533 61 348 10.0 19.0 0.00 0.47 0.47 69 1018.3
20180925222017 61 300 9.0 17.0 0.00 0.47 0.47 71 1018.2
20180925221520 61 336 12.0 21.0 0.00 0.47 0.47 67 1018.3
20180925221023 62 338 14.0 20.0 0.00 0.47 0.47 67 1018.3
20180925220524 63 355 11.0 21.0 0.00 0.47 0.47 67 1018.2
20180925220024 63 316 12.0 24.0 0.00 0.47 0.47 68 1018.2
20180925215526 63 319 13.0 24.0 0.00 0.47 0.47 67 1018.2
20180925215029 63 348 15.0 23.0 0.00 0.47 0.47 65 1018.1
20180925214529 64 336 11.0 18.0 0.00 0.47 0.47 66 1018.0
20180925214031 63 340 12.0 24.0 0.00 0.47 0.47 66 1017.9
20180925213531 63 301 12.0 24.0 0.00 0.47 0.47 66 1017.8
20180925213030 63 302 13.0 24.0 0.00 0.47 0.47 65 1017.8
20180925212533 63 355 12.0 22.0 0.00 0.47 0.47 67 1017.7
20180925212016 63 318 14.0 23.0 0.00 0.47 0.47 66 1017.6
20180925211515 63 330 15.0 23.0 0.00 0.47 0.47 67 1017.6
20180925211014 63 316 14.0 21.0 0.00 0.47 0.47 67 1017.6
20180925210516 63 355 12.0 21.0 0.00 0.47 0.47 66 1017.5
20180925210016 64 329 13.0 22.0 0.00 0.47 0.47 69 1017.4
20180925205517 64 343 15.0 22.0 0.00 0.47 0.47 69 1017.4
20180925205017 64 336 15.0 19.0 0.00 0.47 0.47 68 1017.3
20180925204518 63 344 10.0 17.0 0.00 0.47 0.47 74 1017.4
20180925204019 62 14 10.0 21.0 0.00 0.47 0.47 73 1017.3
20180925203520 64 17 13.0 21.0 0.00 0.47 0.47 69 1017.3
20180925203022 64 317 13.0 22.0 0.00 0.47 0.47 70 1017.2
20180925202524 64 326 14.0 22.0 0.00 0.47 0.47 70 1017.1
20180925202028 63 350 9.0 22.0 0.00 0.47 0.47 74 1017.0
20180925201031 62 323 13.0 20.0 0.00 0.47 0.47 73 1017.0
20180925200514 64 313 15.0 20.0 0.00 0.47 0.47 72 1017.0
20180925200014 64 308 14.0 19.0 0.00 0.47 0.47 74 1016.9
20180925195518 63 355 11.0 25.0 0.00 0.47 0.47 73 1016.9
20180925195019 63 297 13.0 23.0 0.00 0.47 0.47 74 1016.8
20180925194520 63 294 13.0 25.0 0.00 0.47 0.47 76 1016.8
20180925194023 62 342 17.0 26.0 0.00 0.47 0.47 75 1016.8
20180925193524 63 322 17.0 26.0 0.00 0.47 0.47 74 1016.7
20180925193024 61 342 11.0 23.0 0.00 0.47 0.47 79 1016.8
20180925192524 61 321 13.0 25.0 0.00 0.47 0.47 80 1016.7
20180925192024 60 335 15.0 25.0 0.00 0.47 0.47 83 1016.7
20180925191525 60 319 16.0 23.0 0.00 0.47 0.47 83 1016.7
20180925191049 60 311 14.0 21.0 0.00 0.47 0.47 84 1016.8
20180925190526 60 342 14.0 20.0 0.00 0.47 0.47 84 1016.7
20180925190025 60 319 12.0 21.0 0.00 0.47 0.47 84 1016.7
20180925185526 60 291 12.0 21.0 0.00 0.47 0.47 86 1016.7
20180925185029 60 311 12.0 23.0 0.00 0.47 0.47 86 1016.6
20180925184530 60 308 14.0 23.0 0.00 0.47 0.47 86 1016.5
20180925184032 60 325 13.0 19.0 0.00 0.47 0.47 85 1016.5
20180925183531 60 323 13.0 21.0 0.00 0.47 0.47 85 1016.4
20180925183033 60 320 13.0 22.0 0.00 0.47 0.47 86 1016.4
20180925182515 60 320 13.0 27.0 0.00 0.47 0.47 87 1016.4
20180925182015 60 313 16.0 27.0 0.00 0.47 0.47 86 1016.3
20180925181613 60 328 16.0 22.0 0.00 0.47 0.47 86 1016.3
20180925181019 60 318 11.0 21.0 0.00 0.47 0.47 88 1016.3
20180925180518 59 320 13.0 21.0 0.00 0.47 0.47 90 1016.2
20180925180022 58 339 11.0 18.0 0.00 0.47 0.47 90 1016.2
20180925175525 58 263 12.0 18.0 0.00 0.47 0.47 90 1016.3
20180925175025 58 331 10.0 18.0 0.00 0.47 0.47 90 1016.2
20180925174525 58 350 10.0 16.0 0.00 0.47 0.47 90 1016.3
20180925174026 58 309 11.0 16.0 0.00 0.47 0.47 90 1016.4
20180925173528 58 344 7.0 21.0 0.00 0.47 0.47 91 1016.3
20180925173030 58 346 11.0 21.0 0.00 0.47 0.47 90 1016.2
20180925172531 58 360 9.0 16.0 0.00 0.47 0.47 90 1016.2
20180925172032 58 346 10.0 16.0 0.00 0.47 0.47 90 1016.2
20180925171532 58 344 11.0 14.0 0.00 0.47 0.47 90 1016.1
20180925171032 58 322 10.0 19.0 0.00 0.47 0.47 90 1016.1
20180925170514 58 341 12.0 19.0 0.01 0.47 0.47 90 1015.9
20180925170014 58 335 10.0 18.0 0.01 0.47 0.47 90 1015.9
20180925165517 58 360 11.0 18.0 0.01 0.47 0.47 89 1016.1
20180925165019 58 322 8.0 17.0 0.01 0.47 0.47 89 1016.1
20180925164522 58 339 13.0 17.0 0.01 0.47 0.47 89 1016.1
20180925164023 58 351 10.0 15.0 0.01 0.47 0.47 90 1015.9
20180925163526 58 319 8.0 18.0 0.01 0.47 0.47 90 1015.7
20180925163027 58 343 11.0 18.0 0.02 0.47 0.47 91 1015.5
20180925162529 58 9 8.0 14.0 0.03 0.47 0.47 92 1015.3
20180925162031 57 333 10.0 17.0 0.07 0.47 0.47 91 1015.2
20180925161516 57 332 12.0 20.0 0.08 0.47 0.47 91 1015.3
20180925161020 57 348 10.0 17.0 0.08 0.46 0.46 92 1015.3
20180925160523 57 347 9.0 18.0 0.10 0.46 0.46 93 1015.2
20180925160025 57 320 12.0 16.0 0.12 0.46 0.46 93 1015.2
20180925155529 57 322 9.0 17.0 0.14 0.46 0.46 93 1015.2
20180925155032 57 309 7.0 17.0 0.14 0.46 0.46 93 1015.1
20180925154532 57 330 9.0 18.0 0.14 0.46 0.46 93 1014.6
20180925154015 57 336 13.0 18.0 0.14 0.46 0.46 93 1014.5
20180925153517 57 331 9.0 16.0 0.14 0.46 0.46 94 1014.8
20180925153018 57 345 5.0 21.0 0.13 0.45 0.45 94 1014.9
20180925152521 57 360 13.0 21.0 0.11 0.43 0.43 94 1014.5
20180925152020 57 348 8.0 19.0 0.07 0.39 0.39 94 1014.4
20180925151521 57 330 13.0 19.0 0.07 0.39 0.39 94 1014.6
20180925151023 57 300 12.0 18.0 0.07 0.38 0.38 93 1015.0
20180925150525 57 314 12.0 17.0 0.06 0.36 0.36 94 1015.5
20180925150028 57 315 10.0 16.0 0.05 0.34 0.34 93 1015.1
20180925145530 57 281 10.0 17.0 0.05 0.32 0.32 93 1014.3
20180925145029 57 333 12.0 18.0 0.07 0.32 0.32 93 1013.8
20180925144531 57 344 9.0 19.0 0.22 0.32 0.32 93 1013.7
20180925144014 57 355 12.0 21.0 0.32 0.32 0.32 93 1013.7
20180925143518 57 350 13.0 21.0 0.32 0.32 0.32 94 1013.9
20180925143022 57 338 12.0 21.0 0.32 0.32 0.32 94 1013.7
20180925142525 57 355 15.0 20.0 0.32 0.32 0.32 94 1013.4
20180925142026 57 339 10.0 14.0 0.32 0.32 0.32 94 1013.3
20180925141529 57 306 10.0 15.0 0.32 0.32 0.32 95 1013.1
20180925141031 57 330 10.0 20.0 0.31 0.31 0.31 95 1012.9
20180925140513 57 328 11.0 20.0 0.30 0.30 0.30 94 1012.8
20180925140016 57 336 11.0 19.0 0.29 0.29 0.29 95 1013.1
20180925135517 58 333 11.0 26.0 0.27 0.27 0.27 95 1013.0
20180925135020 58 308 15.0 26.0 0.24 0.24 0.24 94 1013.9
20180925134519 58 331 14.0 28.0 0.08 0.08 0.08 94 1013.3
20180925134019 58 277 11.0 18.0 0.00 0.00 0.00 94 1013.1
20180925133518 58 339 5.0 12.0 0.00 0.00 0.00 94 1011.7
20180925133020 58 360 7.0 12.0 0.00 0.00 0.00 94 1011.5
20180925132519 58 342 8.0 11.0 0.00 0.00 0.00 93 1011.4
20180925132022 59 307 8.0 12.0 0.00 0.00 0.00 92 1011.6
20180925131524 59 306 7.0 14.0 0.00 0.00 0.00 91 1011.7
20180925131027 59 306 8.0 14.0 0.00 0.00 0.00 91 1011.8
20180925130530 59 294 6.0 13.0 0.00 0.00 0.00 91 1011.6
20180925130031 60 311 7.0 10.0 0.00 0.00 0.00 90 1011.2
20180925125023 60 308 2.0 5.0 0.00 0.00 0.00 90 1011.0
20180925124525 60 311 3.0 5.0 0.00 0.00 0.00 90 1011.1
20180925124029 60 348 0.0 4.0 0.00 0.00 0.00 90 1010.9
20180925123531 60 351 3.0 5.0 0.00 0.00 0.00 91 1010.8
20180925123014 60 5 2.0 6.0 0.00 0.00 0.00 90 1010.7
20180925122516 60 355 3.0 6.0 0.00 0.00 0.00 90 1010.9
20180925122019 60 348 3.0 5.0 0.00 0.00 0.00 90 1010.9
20180925121519 60 27 0.0 4.0 0.00 0.00 0.00 90 1010.8
20180925121022 60 27 0.0 4.0 0.00 0.00 0.00 90 1010.9
20180925120524 60 27 2.0 6.0 0.00 0.00 0.00 90 1010.8
20180925120026 60 24 2.0 6.0 0.00 0.00 0.00 90 1011.1
20180925115514 60 21 3.0 6.0 0.00 0.00 0.00 90 1011.2
20180925115015 60 350 3.0 5.0 0.00 0.00 0.00 90 1011.2
20180925114519 60 350 3.0 5.0 0.00 0.00 0.00 90 1011.1
20180925114022 60 16 3.0 5.0 0.00 0.00 0.00 90 1011.2
20180925113526 60 22 3.0 5.0 0.00 0.00 0.00 90 1011.1
20180925113026 60 37 2.0 4.0 0.00 0.00 0.00 90 1011.1
20180925112528 60 37 1.0 4.0 0.00 0.00 0.00 90 1011.2
20180925112054 60 37 2.0 4.0 0.00 0.00 0.00 90 1011.3
20180925111514 60 37 1.0 4.0 0.00 0.00 0.00 90 1011.3
20180925111014 60 37 2.0 4.0 0.00 0.00 0.00 90 1011.1
20180925110516 60 37 2.0 4.0 0.00 0.00 0.00 90 1011.2
20180925110019 60 37 3.0 5.0 0.00 0.00 0.00 90 1011.1
20180925105519 60 38 3.0 5.0 0.00 0.00 0.00 90 1011.1
20180925105024 59 38 1.0 5.0 0.00 0.00 0.00 90 1010.9
20180925104525 59 32 3.0 5.0 0.00 0.00 0.00 90 1011.0
20180925104026 59 30 1.0 5.0 0.00 0.00 0.00 90 1011.0
20180925103529 59 38 3.0 5.0 0.00 0.00 0.00 90 1011.1
20180925102030 59 49 2.0 6.0 0.00 0.00 0.00 90 1011.1
20180925101514 59 89 1.0 4.0 0.00 0.00 0.00 90 1011.1
20180925101018 59 90 1.0 6.0 0.00 0.00 0.00 89 1011.1
20180925100522 59 82 3.0 7.0 0.00 0.00 0.00 89 1011.1
20180925100025 59 69 3.0 9.0 0.00 0.00 0.00 89 1011.3
20180925095528 59 48 3.0 9.0 0.00 0.00 0.00 89 1011.4
20180925095030 59 49 4.0 10.0 0.00 0.00 0.00 89 1011.5
20180925094533 59 17 5.0 12.0 0.00 0.00 0.00 89 1011.5
20180925094014 59 11 6.0 12.0 0.00 0.00 0.00 89 1011.4
20180925093515 59 30 5.0 10.0 0.00 0.00 0.00 90 1011.4
20180925093014 59 34 5.0 10.0 0.00 0.00 0.00 89 1011.3
20180925092516 59 349 5.0 10.0 0.00 0.00 0.00 90 1011.4
20180925092020 59 32 6.0 10.0 0.00 0.00 0.00 89 1011.5
20180925091535 59 5 7.0 11.0 0.00 0.00 0.00 89 1011.5
20180925091018 59 5 7.0 11.0 0.00 0.00 0.00 90 1011.5
20180925090519 59 35 5.0 11.0 0.00 0.00 0.00 90 1011.6
20180925090023 59 360 5.0 9.0 0.00 0.00 0.00 90 1011.7
20180925085524 59 10 6.0 12.0 0.00 0.00 0.00 89 1011.8
20180925085027 59 24 8.0 12.0 0.00 0.00 0.00 89 1011.8
20180925084527 59 335 6.0 10.0 0.00 0.00 0.00 89 1011.9
20180925084029 59 32 4.0 10.0 0.00 0.00 0.00 89 1011.9
20180925083531 59 355 4.0 10.0 0.00 0.00 0.00 89 1012.0
20180925083031 59 337 4.0 10.0 0.00 0.00 0.00 89 1012.0
20180925082513 59 355 6.0 10.0 0.00 0.00 0.00 89 1012.0
20180925082017 59 355 5.0 12.0 0.00 0.00 0.00 89 1012.1
20180925081518 59 17 7.0 12.0 0.00 0.00 0.00 89 1012.1
20180925081017 59 351 7.0 11.0 0.00 0.00 0.00 89 1012.1
20180925080516 59 355 6.0 11.0 0.00 0.00 0.00 88 1012.2
20180925080018 59 15 8.0 12.0 0.00 0.00 0.00 88 1012.3
20180925075518 59 15 7.0 12.0 0.00 0.00 0.00 89 1012.3
20180925075020 59 12 7.0 12.0 0.00 0.00 0.00 88 1012.4
20180925074521 59 337 7.0 12.0 0.00 0.00 0.00 88 1012.4
20180925074022 59 355 8.0 13.0 0.00 0.00 0.00 88 1012.4
20180925073522 60 327 8.0 13.0 0.00 0.00 0.00 88 1012.4
20180925073022 60 326 8.0 11.0 0.00 0.00 0.00 88 1012.4
20180925072524 60 355 8.0 12.0 0.00 0.00 0.00 88 1012.5
20180925072023 60 344 8.0 12.0 0.00 0.00 0.00 88 1012.3
20180925071525 60 346 6.0 13.0 0.00 0.00 0.00 88 1012.1
20180925071027 60 355 8.0 13.0 0.00 0.00 0.00 87 1012.0
20180925070526 61 355 8.0 13.0 0.00 0.00 0.00 87 1012.0
20180925070028 61 5 6.0 12.0 0.00 0.00 0.00 87 1012.1
20180925065530 61 350 7.0 13.0 0.00 0.00 0.00 86 1012.1
20180925065031 61 31 6.0 13.0 0.00 0.00 0.00 86 1012.2
20180925064514 61 330 8.0 12.0 0.00 0.00 0.00 86 1012.2
20180925064033 61 348 7.0 11.0 0.00 0.00 0.00 86 1012.2
20180925063515 61 9 4.0 11.0 0.00 0.00 0.00 86 1012.2
20180925063018 62 346 7.0 11.0 0.00 0.00 0.00 86 1012.0
20180925062519 62 338 7.0 13.0 0.00 0.00 0.00 85 1012.0
20180925062021 62 332 8.0 13.0 0.00 0.00 0.00 85 1012.1
20180925061520 62 340 9.0 12.0 0.00 0.00 0.00 85 1012.0
20180925061022 63 5 9.0 12.0 0.00 0.00 0.00 85 1011.9
20180925060523 63 11 6.0 15.0 0.00 0.00 0.00 84 1012.0
20180925060025 63 28 10.0 15.0 0.00 0.00 0.00 84 1012.0
20180925055528 63 5 7.0 12.0 0.00 0.00 0.00 84 1011.8
20180925055031 63 13 7.0 11.0 0.00 0.00 0.00 83 1011.9
20180925054531 63 13 7.0 12.0 0.00 0.00 0.00 83 1012.0
20180925054033 64 12 7.0 13.0 0.00 0.00 0.00 83 1012.0
20180925053513 64 21 8.0 13.0 0.00 0.00 0.00 83 1012.0
20180925053013 64 11 9.0 13.0 0.00 0.00 0.00 83 1011.9
20180925052514 64 36 7.0 11.0 0.00 0.00 0.00 84 1011.9
20180925052016 64 13 5.0 13.0 0.00 0.00 0.00 84 1012.0
20180925051518 64 21 8.0 13.0 0.00 0.00 0.00 84 1011.9
20180925051020 64 20 7.0 13.0 0.00 0.00 0.00 84 1011.9
20180925050521 65 22 8.0 14.0 0.00 0.00 0.00 83 1011.9
20180925050021 65 323 10.0 15.0 0.00 0.00 0.00 83 1011.8
20180925045524 65 17 9.0 16.0 0.00 0.00 0.00 82 1011.8
20180925045024 65 36 9.0 16.0 0.00 0.00 0.00 82 1011.8
20180925044526 65 351 10.0 16.0 0.00 0.00 0.00 82 1011.9
20180925044025 65 26 8.0 13.0 0.00 0.00 0.00 83 1011.9
20180925043524 65 25 8.0 13.0 0.00 0.00 0.00 82 1011.8
20180925043025 65 14 9.0 15.0 0.00 0.00 0.00 83 1011.8
20180925042525 65 53 9.0 14.0 0.00 0.00 0.00 83 1011.8
20180925042028 65 40 4.0 10.0 0.00 0.00 0.00 83 1011.7
20180925041528 65 55 4.0 7.0 0.00 0.00 0.00 84 1011.6
20180925041029 66 50 4.0 9.0 0.00 0.00 0.00 83 1011.6
20180925040530 66 51 5.0 9.0 0.00 0.00 0.00 83 1011.5
20180925040029 66 44 4.0 9.0 0.00 0.00 0.00 82 1011.7
20180925035526 66 27 5.0 13.0 0.00 0.00 0.00 82 1011.7
20180925035026 66 18 7.0 13.0 0.00 0.00 0.00 82 1011.7
20180925034530 66 22 6.0 12.0 0.00 0.00 0.00 82 1011.7
20180925034031 66 348 7.0 12.0 0.00 0.00 0.00 81 1011.6
20180925033513 66 21 5.0 9.0 0.00 0.00 0.00 81 1011.4
20180925033015 67 32 5.0 9.0 0.00 0.00 0.00 80 1011.4
20180925032514 67 27 4.0 8.0 0.00 0.00 0.00 80 1011.3
20180925032016 67 40 3.0 10.0 0.00 0.00 0.00 80 1011.4
20180925031516 67 27 5.0 10.0 0.00 0.00 0.00 79 1011.5
20180925031019 67 15 5.0 9.0 0.00 0.00 0.00 79 1011.4
20180925030519 68 355 4.0 11.0 0.00 0.00 0.00 79 1011.5
20180925030021 68 12 7.0 11.0 0.00 0.00 0.00 78 1011.5